Mattoon, IL

2:36 AM CDT on March 29, 2017 (GMT -0500)
Coles County Memorial

Weather History for KMTO - July, 2013

Change the Weather History Date:

Friday, July 26, 2013

  Actual Average Record
Temperature  
Mean Temperature 67 °F 75 °F  
Max Temperature 76 °F 86 °F 100 °F (1952)
Min Temperature 58 °F 65 °F 52 °F (1977)
Degree Days  
Heating Degree Days 0 0  
Month to date heating degree days 0 0  
Since 1 June heating degree days 11 17  
Since 1 July heating degree days 0 0  
Cooling Degree Days 2 10  
Month to date cooling degree days 235 282  
Year to date cooling degree days 560 593  
Since 1 June cooling degree days 451 505  
Growing Degree Days 16 (Base 50)    
Moisture  
Dew Point 62 °F    
Average Humidity 80    
Maximum Humidity 100    
Minimum Humidity 60    
Precipitation  
Precipitation T in 0.11 in 1.75 in (2005)
Month to date precipitation 6.47 3.73  
Year to date precipitation 37.49 22.32  
Sea Level Pressure  
Sea Level Pressure 30.02 in    
Wind  
Wind Speed 6 mph (SSW)    
Max Wind Speed 10 mph    
Max Gust Speed 20 mph    
Visibility 9 miles    
Events Rain    
T = Trace of Precipitation, MM = Missing Value Source: NWS Daily Summary

Daily Weather History Graph

Daily Weather History Graph

Search for Another Location

Airport or City:

Trip Planner

Search our weather history database for the weather conditions in past years. The results will help you decide how hot, cold, wet, or windy it might be!

Date:

Astronomy

Jul. 26, 2013 Rise Set
Actual Time 5:47 AM CDT 8:11 PM CDT
Civil Twilight 5:17 AM CDT 8:41 PM CDT
Nautical Twilight 4:39 AM CDT 9:19 PM CDT
Astronomical Twilight 3:57 AM CDT 10:00 PM CDT
Moon 10:26 PM CDT (7/26) 10:22 AM CDT (7/26)
Length of Visible Light 15h 24m
Length of Day
14h 23m
Waning Gibbous, 80% of the Moon is Illuminated
Jul 26
Waning Gibbous
Jul 29
Last Quarter
Aug 6
New
Aug 14
First Quarter
Aug 20
Full

Hourly Weather History & Observations

Time (CDT) Temp. Dew Point Humidity Pressure Visibility Wind Dir Wind Speed Gust Speed Precip Events Conditions
12:53 AM 61.0 °F 59.0 °F 93% 30.07 in 10.0 mi Calm Calm - N/A   Clear
1:53 AM 60.1 °F 57.0 °F 90% 30.07 in 10.0 mi Calm Calm - N/A   Clear
2:53 AM 59.0 °F 57.9 °F 96% 30.05 in 10.0 mi South 3.5 mph - N/A   Clear
3:53 AM 57.9 °F 57.0 °F 97% 30.05 in 10.0 mi Calm Calm - N/A   Clear
4:53 AM 60.1 °F 57.0 °F 90% 30.05 in 10.0 mi SSE 4.6 mph - N/A   Clear
5:53 AM 59.0 °F 57.0 °F 93% 30.03 in 10.0 mi SSE 4.6 mph - N/A   Clear
6:53 AM 62.1 °F 57.9 °F 86% 30.05 in 10.0 mi South 5.8 mph - N/A   Clear
7:53 AM 66.0 °F 60.1 °F 81% 30.06 in 10.0 mi South 4.6 mph - N/A   Clear
8:46 AM 68.0 °F 60.8 °F 78% 30.07 in 1.2 mi South 4.6 mph - N/A   Haze
8:53 AM 68.0 °F 61.0 °F 78% 30.06 in 10.0 mi SSW 5.8 mph - N/A   Clear
9:53 AM 70.0 °F 61.0 °F 73% 30.05 in 10.0 mi South 8.1 mph - N/A   Clear
10:53 AM 73.9 °F 61.0 °F 64% 30.06 in 10.0 mi SW 8.1 mph - N/A   Clear
11:53 AM 75.9 °F 61.0 °F 60% 30.06 in 10.0 mi WSW 4.6 mph - N/A   Partly Cloudy
12:53 PM 75.0 °F 61.0 °F 62% 30.04 in 4.0 mi West 6.9 mph - N/A   Haze
1:53 PM 73.9 °F 62.1 °F 66% 30.02 in 10.0 mi SSW 6.9 mph - N/A   Overcast
2:53 PM 73.0 °F 64.0 °F 73% 30.01 in 10.0 mi SW 5.8 mph - 0.00 in   Overcast
3:53 PM 73.0 °F 64.0 °F 73% 30.01 in 10.0 mi SSW 3.5 mph - N/A   Mostly Cloudy
4:53 PM 73.0 °F 64.9 °F 76% 30.00 in 10.0 mi SSW 6.9 mph - 0.00 in   Overcast
5:53 PM 72.0 °F 64.0 °F 76% 29.99 in 10.0 mi SSW 6.9 mph - 0.00 in   Overcast
6:53 PM 71.1 °F 64.9 °F 81% 29.98 in 10.0 mi SW 5.8 mph - 0.00 in Rain Light Rain
7:53 PM 70.0 °F 64.9 °F 84% 29.96 in 10.0 mi SSW 6.9 mph - N/A   Overcast
8:53 PM 70.0 °F 66.0 °F 87% 29.95 in 10.0 mi South 6.9 mph - N/A   Overcast
9:53 PM 69.1 °F 66.0 °F 90% 29.95 in 10.0 mi SW 8.1 mph - N/A   Mostly Cloudy
10:53 PM 68.0 °F 66.0 °F 93% 29.92 in 10.0 mi SSW 9.2 mph - N/A   Partly Cloudy
11:46 PM 68.0 °F 66.2 °F 94% 29.94 in 9.0 mi South 4.6 mph - N/A   Mostly Cloudy
11:53 PM 68.0 °F 66.0 °F 93% 29.92 in 9.0 mi SSW 5.8 mph - N/A   Mostly Cloudy